owner,sensor,date,latitude,longitude,vertical_datum,wind_speed,wind_to_direction,wind_speed_of_gust,qcFlag 
COMPS,ioos:station:USF.COMPS:ARP:1,2013-09-03T20:54:00Z,28.4330,-82.6670,10.0,3.6,300.0,5.1,'1111122,1111122,1111122' 
COMPS,ioos:station:USF.COMPS:ARP:1,2013-09-03T21:54:00Z,28.4330,-82.6670,10.0,3.6,290.0,4.6,'1111122,1111122,1111122' 
COMPS,ioos:station:USF.COMPS:ARP:1,2013-09-03T22:54:00Z,28.4330,-82.6670,10.0,3.6,300.0,4.1,'1111122,1111122,1111122' 
COMPS,ioos:station:USF.COMPS:ARP:1,2013-09-03T23:54:00Z,28.4330,-82.6670,10.0,2.6,310.0,3.1,'1111122,1111122,1111122' 
COMPS,ioos:station:USF.COMPS:ARP:1,2013-09-04T00:54:00Z,28.4330,-82.6670,10.0,2.6,290.0,3.1,'1111122,1111122,1111122' 
COMPS,ioos:station:USF.COMPS:ARP:1,2013-09-04T01:54:00Z,28.4330,-82.6670,10.0,0.5,230.0,1.0,'1111122,1111122,1111122' 
COMPS,ioos:station:USF.COMPS:ARP:1,2013-09-04T02:54:00Z,28.4330,-82.6670,10.0,0.5,90.0,1.0,'1111122,1111122,1111122' 
COMPS,ioos:station:USF.COMPS:ARP:1,2013-09-04T03:54:00Z,28.4330,-82.6670,10.0,0.5,90.0,1.0,'1111122,1111122,1111122' 
COMPS,ioos:station:USF.COMPS:ARP:1,2013-09-04T04:54:00Z,28.4330,-82.6670,10.0,1.0,100.0,1.0,'1111122,1111122,1111122' 
COMPS,ioos:station:USF.COMPS:ARP:1,2013-09-04T05:54:00Z,28.4330,-82.6670,10.0,1.0,100.0,1.0,'1111122,1111122,1111122' 
COMPS,ioos:station:USF.COMPS:ARP:1,2013-09-04T06:54:00Z,28.4330,-82.6670,10.0,1.0,100.0,2.1,'1111122,1111122,1111122' 
COMPS,ioos:station:USF.COMPS:ARP:1,2013-09-04T07:54:00Z,28.4330,-82.6670,10.0,1.0,120.0,2.1,'1111122,1111122,1111122' 
COMPS,ioos:station:USF.COMPS:ARP:1,2013-09-04T08:54:00Z,28.4330,-82.6670,10.0,1.0,100.0,1.5,'1111122,1111122,1111122' 
COMPS,ioos:station:USF.COMPS:ARP:1,2013-09-04T09:54:00Z,28.4330,-82.6670,10.0,1.0,120.0,2.6,'1111122,1111122,1111122' 
COMPS,ioos:station:USF.COMPS:ARP:1,2013-09-04T10:54:00Z,28.4330,-82.6670,10.0,1.0,130.0,2.1,'1111122,1111122,1111122' 
COMPS,ioos:station:USF.COMPS:ARP:1,2013-09-04T11:54:00Z,28.4330,-82.6670,10.0,1.0,100.0,1.5,'1111122,1111122,1111122' 
COMPS,ioos:station:USF.COMPS:ARP:1,2013-09-04T12:54:00Z,28.4330,-82.6670,10.0,1.0,110.0,2.1,'1111122,1111122,1111122' 
COMPS,ioos:station:USF.COMPS:ARP:1,2013-09-04T13:54:00Z,28.4330,-82.6670,10.0,1.5,90.0,2.1,'1111122,1111122,1111122' 
COMPS,ioos:station:USF.COMPS:ARP:1,2013-09-04T14:54:00Z,28.4330,-82.6670,10.0,2.1,110.0,3.6,'1111122,1111122,1111122' 
COMPS,ioos:station:USF.COMPS:ARP:1,2013-09-04T15:54:00Z,28.4330,-82.6670,10.0,1.0,90.0,2.1,'1111122,1111122,1111122' 
COMPS,ioos:station:USF.COMPS:ARP:1,2013-09-04T16:54:00Z,28.4330,-82.6670,10.0,1.5,70.0,2.6,'1111122,1111122,1111122' 
COMPS,ioos:station:USF.COMPS:ARP:1,2013-09-04T17:54:00Z,28.4330,-82.6670,10.0,2.6,310.0,4.6,'1111122,1111122,1111122' 
COMPS,ioos:station:USF.COMPS:ARP:1,2013-09-04T18:54:00Z,28.4330,-82.6670,10.0,2.6,310.0,4.6,'1111122,1111122,1111122' 
COMPS,ioos:station:USF.COMPS:ARP:1,2013-09-04T19:54:00Z,28.4330,-82.6670,10.0,2.1,320.0,4.1,'1111122,1111122,1111122' 
COMPS,ioos:station:USF.COMPS:ARP:1,2013-09-04T20:54:00Z,28.4330,-82.6670,10.0,3.1,320.0,6.2,'1111122,1111122,1111122' 
COMPS,ioos:station:USF.COMPS:ARP:1,2013-09-04T21:54:00Z,28.4330,-82.6670,10.0,1.0,50.0,2.1,'1111122,1111122,1111122' 
COMPS,ioos:station:USF.COMPS:ARP:1,2013-09-04T22:54:00Z,28.4330,-82.6670,10.0,1.5,70.0,3.1,'1111122,1111122,1111122' 
COMPS,ioos:station:USF.COMPS:ARP:1,2013-09-04T23:54:00Z,28.4330,-82.6670,10.0,4.6,100.0,6.2,'1111122,1111122,1111122' 
COMPS,ioos:station:USF.COMPS:ARP:1,2013-09-05T00:54:00Z,28.4330,-82.6670,10.0,4.6,110.0,6.7,'1111122,1111122,1111122' 
COMPS,ioos:station:USF.COMPS:ARP:1,2013-09-05T01:54:00Z,28.4330,-82.6670,10.0,1.5,200.0,2.1,'1111122,1111122,1111122' 
COMPS,ioos:station:USF.COMPS:ARP:1,2013-09-05T02:54:00Z,28.4330,-82.6670,10.0,3.6,110.0,5.7,'1111122,1111122,1111122' 
COMPS,ioos:station:USF.COMPS:ARP:1,2013-09-05T03:54:00Z,28.4330,-82.6670,10.0,2.1,110.0,2.6,'1111122,1111122,1111122' 
COMPS,ioos:station:USF.COMPS:ARP:1,2013-09-05T04:54:00Z,28.4330,-82.6670,10.0,1.0,150.0,1.5,'1111122,1111122,1111122' 
COMPS,ioos:station:USF.COMPS:ARP:1,2013-09-05T05:54:00Z,28.4330,-82.6670,10.0,1.5,90.0,2.1,'1111122,1111122,1111122' 
COMPS,ioos:station:USF.COMPS:ARP:1,2013-09-05T06:54:00Z,28.4330,-82.6670,10.0,0.5,10.0,1.0,'1111122,1111122,1111122' 
COMPS,ioos:station:USF.COMPS:ARP:1,2013-09-05T07:54:00Z,28.4330,-82.6670,10.0,2.6,80.0,3.1,'1111122,1111122,1111122' 
COMPS,ioos:station:USF.COMPS:ARP:1,2013-09-05T08:54:00Z,28.4330,-82.6670,10.0,1.5,100.0,2.1,'1111122,1111122,1111122' 
COMPS,ioos:station:USF.COMPS:ARP:1,2013-09-05T09:54:00Z,28.4330,-82.6670,10.0,2.1,100.0,3.1,'1111122,1111122,1111122' 
COMPS,ioos:station:USF.COMPS:ARP:1,2013-09-05T10:54:00Z,28.4330,-82.6670,10.0,2.1,110.0,3.1,'1111122,1111122,1111122' 
COMPS,ioos:station:USF.COMPS:ARP:1,2013-09-05T11:54:00Z,28.4330,-82.6670,10.0,2.1,110.0,2.6,'1111122,1111122,1111122' 
COMPS,ioos:station:USF.COMPS:ARP:1,2013-09-05T12:54:00Z,28.4330,-82.6670,10.0,1.5,100.0,2.6,'1111122,1111122,1111122' 
COMPS,ioos:station:USF.COMPS:ARP:1,2013-09-05T13:54:00Z,28.4330,-82.6670,10.0,1.0,110.0,2.1,'1111122,1111122,1111122' 
COMPS,ioos:station:USF.COMPS:ARP:1,2013-09-05T18:54:00Z,28.4330,-82.6670,10.0,3.1,310.0,4.6,'1111122,1111122,1111122' 
COMPS,ioos:station:USF.COMPS:ARP:1,2013-09-05T19:54:00Z,28.4330,-82.6670,10.0,2.1,340.0,4.1,'1111122,1111122,1111122' 
COMPS,ioos:station:USF.COMPS:ARP:1,2013-09-05T20:54:00Z,28.4330,-82.6670,10.0,2.1,340.0,3.6,'1111122,1111122,1111122' 
COMPS,ioos:station:USF.COMPS:ARP:1,2013-09-05T22:54:00Z,28.4330,-82.6670,10.0,1.0,360.0,3.1,'1111122,1111122,1111122' 
COMPS,ioos:station:USF.COMPS:ARP:1,2013-09-05T23:54:00Z,28.4330,-82.6670,10.0,0.5,360.0,1.5,'1111122,1111122,1111122' 
COMPS,ioos:station:USF.COMPS:ARP:1,2013-09-06T00:54:00Z,28.4330,-82.6670,10.0,0.0,-9999.0,1.0,'1114422,1111122,1111122' 
COMPS,ioos:station:USF.COMPS:ARP:1,2013-09-06T01:54:00Z,28.4330,-82.6670,10.0,0.5,30.0,1.5,'1111122,1111122,1111122' 
COMPS,ioos:station:USF.COMPS:ARP:1,2013-09-06T02:54:00Z,28.4330,-82.6670,10.0,1.5,120.0,2.6,'1111122,1111122,1111122' 
COMPS,ioos:station:USF.COMPS:ARP:1,2013-09-06T03:54:00Z,28.4330,-82.6670,10.0,1.5,120.0,2.6,'1111122,1111122,1111122' 
COMPS,ioos:station:USF.COMPS:ARP:1,2013-09-06T04:54:00Z,28.4330,-82.6670,10.0,0.5,100.0,1.0,'1111122,1111122,1111122' 
COMPS,ioos:station:USF.COMPS:ARP:1,2013-09-06T05:54:00Z,28.4330,-82.6670,10.0,0.0,-9999.0,1.0,'1114422,1111122,1111122' 
COMPS,ioos:station:USF.COMPS:ARP:1,2013-09-06T06:54:00Z,28.4330,-82.6670,10.0,0.5,100.0,0.5,'1111122,1111122,1111122' 
COMPS,ioos:station:USF.COMPS:ARP:1,2013-09-06T07:54:00Z,28.4330,-82.6670,10.0,1.0,90.0,1.5,'1111122,1111122,1111122' 
COMPS,ioos:station:USF.COMPS:ARP:1,2013-09-06T08:54:00Z,28.4330,-82.6670,10.0,0.5,110.0,1.0,'1111122,1111122,1111122' 
COMPS,ioos:station:USF.COMPS:ARP:1,2013-09-06T09:54:00Z,28.4330,-82.6670,10.0,1.5,110.0,1.5,'1111122,1111122,1111122' 
COMPS,ioos:station:USF.COMPS:ARP:1,2013-09-06T10:54:00Z,28.4330,-82.6670,10.0,0.5,120.0,1.5,'1111122,1111122,1111122' 
COMPS,ioos:station:USF.COMPS:ARP:1,2013-09-06T11:54:00Z,28.4330,-82.6670,10.0,0.5,130.0,1.0,'1111122,1111122,1111122' 
COMPS,ioos:station:USF.COMPS:ARP:1,2013-09-06T12:54:00Z,28.4330,-82.6670,10.0,1.0,130.0,2.1,'1111122,1111122,1111122' 
COMPS,ioos:station:USF.COMPS:ARP:1,2013-09-06T13:54:00Z,28.4330,-82.6670,10.0,1.5,260.0,2.6,'1111122,1111122,1111122' 
COMPS,ioos:station:USF.COMPS:ARP:1,2013-09-06T14:54:00Z,28.4330,-82.6670,10.0,2.6,290.0,3.1,'1111122,1111122,1111122' 
COMPS,ioos:station:USF.COMPS:ARP:1,2013-09-06T15:54:00Z,28.4330,-82.6670,10.0,3.1,300.0,3.6,'1111122,1111122,1111122' 
COMPS,ioos:station:USF.COMPS:ARP:1,2013-09-06T16:54:00Z,28.4330,-82.6670,10.0,3.6,300.0,4.1,'1111122,1111122,1111122' 
COMPS,ioos:station:USF.COMPS:ARP:1,2013-09-06T17:54:00Z,28.4330,-82.6670,10.0,4.1,310.0,5.7,'1111122,1111122,1111122' 
COMPS,ioos:station:USF.COMPS:ARP:1,2013-09-06T18:54:00Z,28.4330,-82.6670,10.0,5.1,310.0,6.7,'1111122,1111122,1111122' 
COMPS,ioos:station:USF.COMPS:ARP:1,2013-09-06T19:54:00Z,28.4330,-82.6670,10.0,4.1,310.0,5.1,'1111122,1111122,1111122' 
COMPS,ioos:station:USF.COMPS:ARP:1,2013-09-06T20:54:00Z,28.4330,-82.6670,10.0,1.5,310.0,3.1,'1111122,1111122,1111122' 
COMPS,ioos:station:USF.COMPS:ARP:1,2013-09-06T21:54:00Z,28.4330,-82.6670,10.0,5.7,100.0,9.8,'1111122,1111122,1111122' 
COMPS,ioos:station:USF.COMPS:ARP:1,2013-09-06T22:54:00Z,28.4330,-82.6670,10.0,5.7,90.0,8.2,'1111122,1111122,1111122' 
COMPS,ioos:station:USF.COMPS:ARP:1,2013-09-07T00:54:00Z,28.4330,-82.6670,10.0,2.6,80.0,3.6,'1111122,1111122,1111122' 
COMPS,ioos:station:USF.COMPS:ARP:1,2013-09-07T01:54:00Z,28.4330,-82.6670,10.0,1.0,140.0,2.1,'1111122,1111122,1111122' 
COMPS,ioos:station:USF.COMPS:ARP:1,2013-09-12T18:54:00Z,28.4330,-82.6670,10.0,3.1,320.0,5.1,'1111122,1111122,1111122' 
COMPS,ioos:station:USF.COMPS:ARP:1,2013-09-12T19:54:00Z,28.4330,-82.6670,10.0,4.1,290.0,5.7,'1111122,1111122,1111122' 
COMPS,ioos:station:USF.COMPS:ARP:1,2013-09-12T20:54:00Z,28.4330,-82.6670,10.0,2.6,300.0,4.1,'1111122,1111122,1111122' 
COMPS,ioos:station:USF.COMPS:ARP:1,2013-09-12T21:54:00Z,28.4330,-82.6670,10.0,3.1,310.0,4.1,'1111122,1111122,1111122' 
COMPS,ioos:station:USF.COMPS:ARP:1,2013-09-12T22:54:00Z,28.4330,-82.6670,10.0,2.1,310.0,3.1,'1111122,1111122,1111122' 
COMPS,ioos:station:USF.COMPS:ARP:1,2013-09-12T23:54:00Z,28.4330,-82.6670,10.0,2.6,110.0,4.1,'1111122,1111122,1111122' 
COMPS,ioos:station:USF.COMPS:ARP:1,2013-09-13T00:54:00Z,28.4330,-82.6670,10.0,1.0,200.0,2.6,'1111122,1111122,1111122' 
COMPS,ioos:station:USF.COMPS:ARP:1,2013-09-13T01:54:00Z,28.4330,-82.6670,10.0,0.5,160.0,1.0,'1111122,1111122,1111122' 
COMPS,ioos:station:USF.COMPS:ARP:1,2013-09-13T02:54:00Z,28.4330,-82.6670,10.0,0.5,120.0,1.5,'1111122,1111122,1111122' 
COMPS,ioos:station:USF.COMPS:ARP:1,2013-09-13T03:54:00Z,28.4330,-82.6670,10.0,0.0,-9999.0,0.5,'1114422,1111122,1111122' 
COMPS,ioos:station:USF.COMPS:ARP:1,2013-09-13T04:54:00Z,28.4330,-82.6670,10.0,1.0,110.0,1.5,'1111122,1111122,1111122' 
COMPS,ioos:station:USF.COMPS:ARP:1,2013-09-13T05:54:00Z,28.4330,-82.6670,10.0,1.0,90.0,1.0,'1111122,1111122,1111122' 
COMPS,ioos:station:USF.COMPS:ARP:1,2013-09-13T06:54:00Z,28.4330,-82.6670,10.0,1.0,120.0,1.5,'1111122,1111122,1111122' 
COMPS,ioos:station:USF.COMPS:ARP:1,2013-09-13T07:54:00Z,28.4330,-82.6670,10.0,0.5,110.0,1.0,'1111122,1111122,1111122' 
COMPS,ioos:station:USF.COMPS:ARP:1,2013-09-13T08:54:00Z,28.4330,-82.6670,10.0,1.5,100.0,2.1,'1111122,1111122,1111122' 
COMPS,ioos:station:USF.COMPS:ARP:1,2013-09-13T09:54:00Z,28.4330,-82.6670,10.0,1.0,120.0,2.1,'1111122,1111122,1111122' 
COMPS,ioos:station:USF.COMPS:ARP:1,2013-09-13T10:54:00Z,28.4330,-82.6670,10.0,0.5,120.0,1.5,'1111122,1111122,1111122' 
COMPS,ioos:station:USF.COMPS:ARP:1,2013-09-13T11:54:00Z,28.4330,-82.6670,10.0,1.0,100.0,1.5,'1111122,1111122,1111122' 
COMPS,ioos:station:USF.COMPS:ARP:1,2013-09-13T12:54:00Z,28.4330,-82.6670,10.0,0.5,160.0,1.5,'1111122,1111122,1111122' 
COMPS,ioos:station:USF.COMPS:ARP:1,2013-09-13T13:54:00Z,28.4330,-82.6670,10.0,0.0,-9999.0,1.0,'1114422,1111122,1111122' 
COMPS,ioos:station:USF.COMPS:ARP:1,2013-09-13T14:54:00Z,28.4330,-82.6670,10.0,2.6,290.0,3.1,'1111122,1111122,1111122' 
COMPS,ioos:station:USF.COMPS:ARP:1,2013-09-13T15:54:00Z,28.4330,-82.6670,10.0,3.6,300.0,4.1,'1111122,1111122,1111122' 
COMPS,ioos:station:USF.COMPS:ARP:1,2013-09-13T16:54:00Z,28.4330,-82.6670,10.0,2.6,310.0,4.1,'1111122,1111122,1111122' 
COMPS,ioos:station:USF.COMPS:ARP:1,2013-09-13T17:54:00Z,28.4330,-82.6670,10.0,3.1,310.0,5.1,'1111122,1111122,1111122' 
COMPS,ioos:station:USF.COMPS:ARP:1,2013-09-13T18:54:00Z,28.4330,-82.6670,10.0,4.1,310.0,5.7,'1111122,1111122,1111122' 
COMPS,ioos:station:USF.COMPS:ARP:1,2013-09-13T19:54:00Z,28.4330,-82.6670,10.0,4.1,300.0,5.1,'1111122,1111122,1111122' 
COMPS,ioos:station:USF.COMPS:ARP:1,2013-09-13T20:54:00Z,28.4330,-82.6670,10.0,4.1,300.0,5.7,'1111122,1111122,1111122' 
COMPS,ioos:station:USF.COMPS:ARP:1,2013-09-13T21:54:00Z,28.4330,-82.6670,10.0,2.6,300.0,3.6,'1111122,1111122,1111122' 
COMPS,ioos:station:USF.COMPS:ARP:1,2013-09-13T22:54:00Z,28.4330,-82.6670,10.0,2.6,290.0,4.1,'1111122,1111122,1111122' 
COMPS,ioos:station:USF.COMPS:ARP:1,2013-09-14T00:54:00Z,28.4330,-82.6670,10.0,0.0,-9999.0,1.5,'1114422,1111122,1111122' 
COMPS,ioos:station:USF.COMPS:ARP:1,2013-09-14T01:54:00Z,28.4330,-82.6670,10.0,0.0,-9999.0,0.5,'1114422,1111122,1111122' 
COMPS,ioos:station:USF.COMPS:ARP:1,2013-09-14T04:54:00Z,28.4330,-82.6670,10.0,0.0,-9999.0,0.5,'1114422,1111122,1111122' 
COMPS,ioos:station:USF.COMPS:ARP:1,2013-09-14T13:54:00Z,28.4330,-82.6670,10.0,0.0,-9999.0,1.0,'1114422,1111122,1111122' 
COMPS,ioos:station:USF.COMPS:ARP:1,2013-09-14T14:54:00Z,28.4330,-82.6670,10.0,1.5,310.0,2.6,'1111122,1111122,1111122' 
COMPS,ioos:station:USF.COMPS:ARP:1,2013-09-14T15:54:00Z,28.4330,-82.6670,10.0,2.1,310.0,4.1,'1111122,1111122,1111122' 
COMPS,ioos:station:USF.COMPS:ARP:1,2013-09-14T16:54:00Z,28.4330,-82.6670,10.0,3.6,310.0,4.6,'1111122,1111122,1111122' 
COMPS,ioos:station:USF.COMPS:ARP:1,2013-09-14T17:54:00Z,28.4330,-82.6670,10.0,3.1,300.0,4.1,'1111122,1111122,1111122' 
COMPS,ioos:station:USF.COMPS:ARP:1,2013-09-14T18:54:00Z,28.4330,-82.6670,10.0,2.6,310.0,4.6,'1111122,1111122,1111122' 
COMPS,ioos:station:USF.COMPS:ARP:1,2013-09-14T19:54:00Z,28.4330,-82.6670,10.0,3.6,310.0,4.6,'1111122,1111122,1111122' 
COMPS,ioos:station:USF.COMPS:ARP:1,2013-09-14T20:54:00Z,28.4330,-82.6670,10.0,2.1,330.0,4.1,'1111122,1111122,1111122' 
COMPS,ioos:station:USF.COMPS:ARP:1,2013-09-14T21:54:00Z,28.4330,-82.6670,10.0,1.5,310.0,3.1,'1111122,1111122,1111122' 
COMPS,ioos:station:USF.COMPS:ARP:1,2013-09-14T22:54:00Z,28.4330,-82.6670,10.0,1.0,320.0,2.6,'1111122,1111122,1111122' 
COMPS,ioos:station:USF.COMPS:ARP:1,2013-09-14T23:54:00Z,28.4330,-82.6670,10.0,1.0,330.0,1.5,'1111122,1111122,1111122' 
COMPS,ioos:station:USF.COMPS:ARP:1,2013-09-15T00:54:00Z,28.4330,-82.6670,10.0,0.5,330.0,1.5,'1111122,1111122,1111122' 
COMPS,ioos:station:USF.COMPS:ARP:1,2013-09-15T01:54:00Z,28.4330,-82.6670,10.0,0.0,-9999.0,0.5,'1114422,1111122,1111122' 
COMPS,ioos:station:USF.COMPS:ARP:1,2013-09-15T02:54:00Z,28.4330,-82.6670,10.0,2.1,130.0,3.1,'1111122,1111122,1111122' 
COMPS,ioos:station:USF.COMPS:ARP:1,2013-09-15T03:54:00Z,28.4330,-82.6670,10.0,0.0,-9999.0,1.5,'1114422,1111122,1111122' 
COMPS,ioos:station:USF.COMPS:ARP:1,2013-09-15T04:54:00Z,28.4330,-82.6670,10.0,1.0,100.0,2.1,'1111122,1111122,1111122' 
COMPS,ioos:station:USF.COMPS:ARP:1,2013-09-15T05:54:00Z,28.4330,-82.6670,10.0,2.1,110.0,3.1,'1111122,1111122,1111122' 
COMPS,ioos:station:USF.COMPS:ARP:1,2013-09-15T06:54:00Z,28.4330,-82.6670,10.0,1.5,100.0,2.1,'1111122,1111122,1111122' 
COMPS,ioos:station:USF.COMPS:ARP:1,2013-09-15T07:54:00Z,28.4330,-82.6670,10.0,2.6,110.0,3.1,'1111122,1111122,1111122' 
COMPS,ioos:station:USF.COMPS:ARP:1,2013-09-15T08:54:00Z,28.4330,-82.6670,10.0,2.1,110.0,3.1,'1111122,1111122,1111122' 
COMPS,ioos:station:USF.COMPS:ARP:1,2013-09-15T09:54:00Z,28.4330,-82.6670,10.0,2.1,100.0,3.1,'1111122,1111122,1111122' 
COMPS,ioos:station:USF.COMPS:ARP:1,2013-09-15T10:54:00Z,28.4330,-82.6670,10.0,1.5,100.0,2.1,'1111122,1111122,1111122' 
COMPS,ioos:station:USF.COMPS:ARP:1,2013-09-15T11:54:00Z,28.4330,-82.6670,10.0,1.5,100.0,2.1,'1111122,1111122,1111122' 
COMPS,ioos:station:USF.COMPS:ARP:1,2013-09-15T12:54:00Z,28.4330,-82.6670,10.0,3.1,90.0,4.6,'1111122,1111122,1111122' 
COMPS,ioos:station:USF.COMPS:ARP:1,2013-09-15T13:54:00Z,28.4330,-82.6670,10.0,3.1,80.0,4.1,'1111122,1111122,1111122' 
COMPS,ioos:station:USF.COMPS:ARP:1,2013-09-15T14:54:00Z,28.4330,-82.6670,10.0,2.1,100.0,3.6,'1111122,1111122,1111122' 
COMPS,ioos:station:USF.COMPS:ARP:1,2013-09-15T15:54:00Z,28.4330,-82.6670,10.0,3.6,100.0,5.1,'1111122,1111122,1111122' 
COMPS,ioos:station:USF.COMPS:ARP:1,2013-09-15T16:54:00Z,28.4330,-82.6670,10.0,3.6,100.0,6.2,'1111122,1111122,1111122' 
COMPS,ioos:station:USF.COMPS:ARP:1,2013-09-15T17:54:00Z,28.4330,-82.6670,10.0,3.1,100.0,5.1,'1111122,1111122,1111122' 
COMPS,ioos:station:USF.COMPS:ARP:1,2013-09-15T18:54:00Z,28.4330,-82.6670,10.0,3.6,120.0,6.2,'1111122,1111122,1111122' 
COMPS,ioos:station:USF.COMPS:ARP:1,2013-09-15T19:54:00Z,28.4330,-82.6670,10.0,2.6,100.0,4.1,'1111122,1111122,1111122' 
COMPS,ioos:station:USF.COMPS:ARP:1,2013-09-15T20:54:00Z,28.4330,-82.6670,10.0,4.6,110.0,9.3,'1111122,1111122,1111122' 
COMPS,ioos:station:USF.COMPS:ARP:1,2013-09-15T21:54:00Z,28.4330,-82.6670,10.0,2.6,140.0,7.2,'1111122,1111122,1111122' 
COMPS,ioos:station:USF.COMPS:ARP:1,2013-09-15T22:54:00Z,28.4330,-82.6670,10.0,1.5,130.0,2.6,'1111122,1111122,1111122' 
COMPS,ioos:station:USF.COMPS:ARP:1,2013-09-15T23:54:00Z,28.4330,-82.6670,10.0,1.0,160.0,2.6,'1111122,1111122,1111122' 
COMPS,ioos:station:USF.COMPS:ARP:1,2013-09-16T00:54:00Z,28.4330,-82.6670,10.0,2.1,80.0,3.1,'1111122,1111122,1111122' 
COMPS,ioos:station:USF.COMPS:ARP:1,2013-09-16T01:54:00Z,28.4330,-82.6670,10.0,0.0,-9999.0,0.5,'1114422,1111122,1111122' 
COMPS,ioos:station:USF.COMPS:ARP:1,2013-09-16T02:54:00Z,28.4330,-82.6670,10.0,1.0,70.0,1.5,'1111122,1111122,1111122' 
COMPS,ioos:station:USF.COMPS:ARP:1,2013-09-16T04:54:00Z,28.4330,-82.6670,10.0,1.5,80.0,2.6,'1111122,1111122,1111122' 
COMPS,ioos:station:USF.COMPS:ARP:1,2013-09-16T05:54:00Z,28.4330,-82.6670,10.0,1.5,80.0,2.6,'1111122,1111122,1111122' 
COMPS,ioos:station:USF.COMPS:ARP:1,2013-09-16T06:54:00Z,28.4330,-82.6670,10.0,2.1,80.0,2.6,'1111122,1111122,1111122' 
COMPS,ioos:station:USF.COMPS:ARP:1,2013-09-16T07:54:00Z,28.4330,-82.6670,10.0,1.5,110.0,2.6,'1111122,1111122,1111122' 
COMPS,ioos:station:USF.COMPS:ARP:1,2013-09-16T08:54:00Z,28.4330,-82.6670,10.0,2.1,110.0,2.6,'1111122,1111122,1111122' 
COMPS,ioos:station:USF.COMPS:ARP:1,2013-09-16T09:54:00Z,28.4330,-82.6670,10.0,1.5,90.0,2.6,'1111122,1111122,1111122' 
COMPS,ioos:station:USF.COMPS:ARP:1,2013-09-16T10:54:00Z,28.4330,-82.6670,10.0,2.1,70.0,2.6,'1111122,1111122,1111122' 
COMPS,ioos:station:USF.COMPS:ARP:1,2013-09-16T11:54:00Z,28.4330,-82.6670,10.0,2.6,80.0,3.1,'1111122,1111122,1111122' 
COMPS,ioos:station:USF.COMPS:ARP:1,2013-09-16T12:54:00Z,28.4330,-82.6670,10.0,2.6,70.0,3.6,'1111122,1111122,1111122' 
COMPS,ioos:station:USF.COMPS:ARP:1,2013-09-16T14:54:00Z,28.4330,-82.6670,10.0,2.1,110.0,3.1,'1111122,1111122,1111122' 
COMPS,ioos:station:USF.COMPS:ARP:1,2013-09-16T15:54:00Z,28.4330,-82.6670,10.0,3.1,110.0,5.1,'1111122,1111122,1111122' 
COMPS,ioos:station:USF.COMPS:ARP:1,2013-09-16T16:54:00Z,28.4330,-82.6670,10.0,2.6,80.0,4.6,'1111122,1111122,1111122' 
COMPS,ioos:station:USF.COMPS:ARP:1,2013-09-16T17:54:00Z,28.4330,-82.6670,10.0,3.1,90.0,6.2,'1111122,1111122,1111122' 
COMPS,ioos:station:USF.COMPS:ARP:1,2013-09-16T18:54:00Z,28.4330,-82.6670,10.0,3.1,90.0,4.6,'1111122,1111122,1111122' 
COMPS,ioos:station:USF.COMPS:ARP:1,2013-09-16T19:54:00Z,28.4330,-82.6670,10.0,1.5,100.0,4.1,'1111122,1111122,1111122' 
COMPS,ioos:station:USF.COMPS:ARP:1,2013-09-16T20:54:00Z,28.4330,-82.6670,10.0,2.6,100.0,3.6,'1111122,1111122,1111122' 
COMPS,ioos:station:USF.COMPS:ARP:1,2013-09-16T21:54:00Z,28.4330,-82.6670,10.0,2.6,160.0,5.7,'1111122,1111122,1111122' 
COMPS,ioos:station:USF.COMPS:ARP:1,2013-09-17T00:54:00Z,28.4330,-82.6670,10.0,1.0,100.0,1.5,'1111122,1111122,1111122' 
COMPS,ioos:station:USF.COMPS:ARP:1,2013-09-17T01:54:00Z,28.4330,-82.6670,10.0,0.0,-9999.0,0.0,'1114422,1111122,1114422' 
COMPS,ioos:station:USF.COMPS:ARP:1,2013-09-17T02:54:00Z,28.4330,-82.6670,10.0,0.5,60.0,1.0,'1111122,1111122,1111122' 
COMPS,ioos:station:USF.COMPS:ARP:1,2013-09-17T03:54:00Z,28.4330,-82.6670,10.0,1.0,100.0,1.5,'1111122,1111122,1111122' 
COMPS,ioos:station:USF.COMPS:ARP:1,2013-09-17T04:54:00Z,28.4330,-82.6670,10.0,1.5,120.0,2.6,'1111122,1111122,1111122' 
COMPS,ioos:station:USF.COMPS:ARP:1,2013-09-17T05:54:00Z,28.4330,-82.6670,10.0,1.0,100.0,1.5,'1111122,1111122,1111122' 
COMPS,ioos:station:USF.COMPS:ARP:1,2013-09-17T06:54:00Z,28.4330,-82.6670,10.0,1.0,80.0,1.5,'1111122,1111122,1111122' 
COMPS,ioos:station:USF.COMPS:ARP:1,2013-09-17T07:54:00Z,28.4330,-82.6670,10.0,2.1,80.0,2.6,'1111122,1111122,1111122' 
COMPS,ioos:station:USF.COMPS:ARP:1,2013-09-17T08:54:00Z,28.4330,-82.6670,10.0,1.5,70.0,2.1,'1111122,1111122,1111122' 
COMPS,ioos:station:USF.COMPS:ARP:1,2013-09-17T09:54:00Z,28.4330,-82.6670,10.0,1.5,70.0,2.6,'1111122,1111122,1111122' 
COMPS,ioos:station:USF.COMPS:ARP:1,2013-09-17T10:54:00Z,28.4330,-82.6670,10.0,1.0,70.0,1.5,'1111122,1111122,1111122' 
COMPS,ioos:station:USF.COMPS:ARP:1,2013-09-17T11:54:00Z,28.4330,-82.6670,10.0,1.5,80.0,2.1,'1111122,1111122,1111122' 
COMPS,ioos:station:USF.COMPS:ARP:1,2013-09-17T12:54:00Z,28.4330,-82.6670,10.0,2.6,70.0,3.6,'1111122,1111122,1111122' 
COMPS,ioos:station:USF.COMPS:ARP:1,2013-09-17T13:54:00Z,28.4330,-82.6670,10.0,3.6,90.0,5.1,'1111122,1111122,1111122' 
COMPS,ioos:station:USF.COMPS:ARP:1,2013-09-17T14:54:00Z,28.4330,-82.6670,10.0,3.6,100.0,5.1,'1111122,1111122,1111122' 
COMPS,ioos:station:USF.COMPS:ARP:1,2013-09-17T15:54:00Z,28.4330,-82.6670,10.0,3.6,100.0,7.2,'1111122,1111122,1111122' 
COMPS,ioos:station:USF.COMPS:ARP:1,2013-09-17T16:54:00Z,28.4330,-82.6670,10.0,3.6,80.0,5.7,'1111122,1111122,1111122' 
COMPS,ioos:station:USF.COMPS:ARP:1,2013-09-17T17:54:00Z,28.4330,-82.6670,10.0,4.1,70.0,6.2,'1111122,1111122,1111122' 
COMPS,ioos:station:USF.COMPS:ARP:1,2013-09-17T18:54:00Z,28.4330,-82.6670,10.0,4.6,90.0,6.7,'1111122,1111122,1111122' 
COMPS,ioos:station:USF.COMPS:ARP:1,2013-09-17T19:54:00Z,28.4330,-82.6670,10.0,4.1,80.0,5.7,'1111122,1111122,1111122' 
COMPS,ioos:station:USF.COMPS:ARP:1,2013-09-17T20:54:00Z,28.4330,-82.6670,10.0,3.6,80.0,5.1,'1111122,1111122,1111122' 
COMPS,ioos:station:USF.COMPS:ARP:1,2013-09-17T22:54:00Z,28.4330,-82.6670,10.0,3.1,100.0,5.1,'1111122,1111122,1111122' 
COMPS,ioos:station:USF.COMPS:ARP:1,2013-09-18T00:54:00Z,28.4330,-82.6670,10.0,1.5,100.0,2.1,'1111122,1111122,1111122' 
COMPS,ioos:station:USF.COMPS:ARP:1,2013-09-18T01:54:00Z,28.4330,-82.6670,10.0,1.5,70.0,1.5,'1111122,1111122,1111122' 
COMPS,ioos:station:USF.COMPS:ARP:1,2013-09-18T02:54:00Z,28.4330,-82.6670,10.0,1.0,90.0,1.5,'1111122,1111122,1111122' 
COMPS,ioos:station:USF.COMPS:ARP:1,2013-09-18T03:54:00Z,28.4330,-82.6670,10.0,2.1,80.0,2.6,'1111122,1111122,1111122' 
COMPS,ioos:station:USF.COMPS:ARP:1,2013-09-18T04:54:00Z,28.4330,-82.6670,10.0,1.0,90.0,1.5,'1111122,1111122,1111122' 
COMPS,ioos:station:USF.COMPS:ARP:1,2013-09-18T05:54:00Z,28.4330,-82.6670,10.0,1.5,70.0,2.1,'1111122,1111122,1111122' 
COMPS,ioos:station:USF.COMPS:ARP:1,2013-09-18T06:54:00Z,28.4330,-82.6670,10.0,1.0,80.0,1.5,'1111122,1111122,1111122' 
COMPS,ioos:station:USF.COMPS:ARP:1,2013-09-18T07:54:00Z,28.4330,-82.6670,10.0,1.5,80.0,2.1,'1111122,1111122,1111122' 
COMPS,ioos:station:USF.COMPS:ARP:1,2013-09-18T08:48:00Z,28.4330,-82.6670,10.0,2.6,70.0,4.1,'1111122,1111122,1111122' 
COMPS,ioos:station:USF.COMPS:ARP:1,2013-09-18T09:54:00Z,28.4330,-82.6670,10.0,2.6,70.0,3.6,'1111122,1111122,1111122' 
COMPS,ioos:station:USF.COMPS:ARP:1,2013-09-18T10:54:00Z,28.4330,-82.6670,10.0,2.6,80.0,3.1,'1111122,1111122,1111122' 
COMPS,ioos:station:USF.COMPS:ARP:1,2013-09-18T11:54:00Z,28.4330,-82.6670,10.0,3.1,70.0,4.1,'1111122,1111122,1111122' 
COMPS,ioos:station:USF.COMPS:ARP:1,2013-09-18T13:54:00Z,28.4330,-82.6670,10.0,5.1,80.0,7.2,'1111122,1111122,1111122' 
COMPS,ioos:station:USF.COMPS:ARP:1,2013-09-18T14:54:00Z,28.4330,-82.6670,10.0,4.1,80.0,6.2,'1111122,1111122,1111122' 
COMPS,ioos:station:USF.COMPS:ARP:1,2013-09-18T15:54:00Z,28.4330,-82.6670,10.0,5.1,70.0,7.7,'1111122,1111122,1111122' 
COMPS,ioos:station:USF.COMPS:ARP:1,2013-09-18T16:54:00Z,28.4330,-82.6670,10.0,4.6,90.0,6.7,'1111122,1111122,1111122' 
COMPS,ioos:station:USF.COMPS:ARP:1,2013-09-18T17:54:00Z,28.4330,-82.6670,10.0,4.1,90.0,6.7,'1111122,1111122,1111122' 
COMPS,ioos:station:USF.COMPS:ARP:1,2013-09-18T18:54:00Z,28.4330,-82.6670,10.0,3.1,70.0,4.1,'1111122,1111122,1111122' 
COMPS,ioos:station:USF.COMPS:ARP:1,2013-09-18T19:54:00Z,28.4330,-82.6670,10.0,1.0,140.0,2.6,'1111122,1111122,1111122' 
COMPS,ioos:station:USF.COMPS:ARP:1,2013-09-18T20:54:00Z,28.4330,-82.6670,10.0,3.6,90.0,6.2,'1111122,1111122,1111122' 